Current weather by "City, St" or "zip code"  
 

Current Conditions: MEEKER

Clear


75.9 F

Last Updated on Jun 17 2024, 08:53 PM MDT
Humidity: 14%
Wind Speed: SW 10.3 mph
Barometer in
Dewpoint: 23.0 F
Visibility: 10.00 mi
Precip: --
Heat Index: 73.9 F
Wind Chill: NA
Current conditions at:

MEEKER (KEEO)

Lat: 40.04 Lon: 107.89

active severe weather and emergency alerts image image weather storm and storm spotter reports image weather observation monitoring service image
Active
Alerts
Storm Reports Obs
Monitoring

Sign-up For Email & Text Message Weather Alert Notification Services



Advertise Here

Observation History for MEEKER


Time Wind
(mph)
Vis
(mi)
Weather Precip (in) Temperature (F) Relative
Humidity
Wind
Chill
(F)
Heat
Index
(F)
Pressure
Air Dwpt altimeter
(in)
sea level
(mb)
Rmks
08:53 PM MDT SW 10.3 10.00 Clear -- 75.9 23.0 14% NA 73.9 M
07:53 PM MDT SW 15.0 10.00 Clear -- 80.1 24.1 13% NA 78.4 29.62 1003.1
06:53 PM MDT SW 24.2 10.00 Clear and Windy -- 82.0 24.1 12% NA 79.5 29.61 1002.7
05:53 PM MDT SW 18.3 10.00 Clear -- 84.0 28.0 13% NA 81.1 29.60 1002.4
04:53 PM MDT 20.8 10.00 Clear and Windy -- 84.0 30.0 14% NA 81.1 29.61 1002.7
03:53 PM MDT S 17.2 5.00 Haze -- 84.0 28.9 14% NA 81.1 29.62 1003.1
02:53 PM MDT 21.9 7.00 Clear and Windy -- 82.0 28.0 14% NA 79.7 29.65 1004.1
01:53 PM MDT 19.7 10.00 Clear and Windy -- 82.9 26.1 12% NA 80.2 29.68 1004.8
01:34 PM MDT 24.2 5.00 Haze -- 82.9 28.0 14% NA 80.2 29.68 1005.1
12:53 PM MDT S 20.8 8.00 Clear and Windy -- 82.0 28.0 14% NA 79.7 29.69 1005.4
09:53 AM MDT 15.0 10.00 Clear -- 75.9 28.0 17% NA 73.9 29.76 1007.8
06:53 AM MDT 6.9 10.00 Clear -- 50.0 34.0 54% NA NA 29.79 1008.8
05:53 AM MDT 3.4 10.00 NULL -- 43.0 32.0 65% 41.4 NA 29.79 1008.8
04:53 AM MDT E 10.3 10.00 Clear -- 48.9 30.9 50% 44.6 NA 29.79 1008.8
03:53 AM MDT 5.8 10.00 Clear -- NULL 32.0 % NA NA 29.81 1009.2
01:53 AM MDT 4.7 10.00 Clear -- 51.1 30.9 46% NA NA 29.82 1009.8
12:53 AM MDT E 3.4 10.00 Clear -- 53.1 30.0 41% NA NA 29.82 1009.8
11:53 PM MDT 6.9 10.00 Clear -- 55.9 30.9 38% NA NA 29.81 1009.5
10:53 PM MDT 5.8 10.00 Clear -- 62.1 30.9 31% NA NA 29.81 1009.5
09:53 PM MDT 6.9 10.00 Clear -- 66.9 30.9 26% NA NA 29.81 1009.5
08:53 PM MDT 0.0 10.00 Clear -- 71.1 34.0 26% NA 69.1 29.79 1008.8
07:53 PM MDT 6.9 10.00 Clear -- 80.1 28.0 15% NA 78.4 29.78 1008.5
06:53 PM MDT 17.2 10.00 Clear -- 84.9 21.9 10% NA 81.3 29.79 1008.8
05:53 PM MDT 18.3 10.00 Clear -- 86.0 19.9 9% NA 82.0 29.81 1009.2

Regional Weather Observation


RANGELY (K4V0)

Clear
67.5 F

CRAIG (KCAG)

Clear
71.1 F

HAYDEN/YAMPA (KHDN)

Mostly Cloudy
60.1 F

RIFLE (KRIL)

Clear
82.0 F

SUNLIGHT (K5SM)

Partly Cloudy
53.6 F

GRAND JUNCTION (KGJT)

Clear
82.9 F

Advertise Here


Advertise Here